owner,sensor,date,latitude,longitude,vertical_datum,sea_water_temperature,qcFlag 
WAVCIS,ioos:station:WAVCIS:CSI03:1,2009-11-01T00:00:00Z,29.4412,-92.0613,10.0,15.81,11111222 
WAVCIS,ioos:station:WAVCIS:CSI03:1,2009-11-01T01:00:00Z,29.4412,-92.0613,10.0,15.77,11111222 
WAVCIS,ioos:station:WAVCIS:CSI03:1,2009-11-01T02:00:00Z,29.4412,-92.0613,10.0,16.38,11111222 
WAVCIS,ioos:station:WAVCIS:CSI03:1,2009-11-01T03:00:00Z,29.4412,-92.0613,10.0,16.98,11111222 
WAVCIS,ioos:station:WAVCIS:CSI03:1,2009-11-01T04:00:00Z,29.4412,-92.0613,10.0,17.2,11111222 
WAVCIS,ioos:station:WAVCIS:CSI03:1,2009-11-01T05:00:00Z,29.4412,-92.0613,10.0,17.38,11111222 
WAVCIS,ioos:station:WAVCIS:CSI03:1,2009-11-01T06:00:00Z,29.4412,-92.0613,10.0,17.48,11111222 
WAVCIS,ioos:station:WAVCIS:CSI03:1,2009-11-01T07:00:00Z,29.4412,-92.0613,10.0,17.51,11111222 
WAVCIS,ioos:station:WAVCIS:CSI03:1,2009-11-01T08:00:00Z,29.4412,-92.0613,10.0,17.47,11111222 
WAVCIS,ioos:station:WAVCIS:CSI03:1,2009-11-01T09:00:00Z,29.4412,-92.0613,10.0,17.38,11111222 
WAVCIS,ioos:station:WAVCIS:CSI03:1,2009-11-01T10:00:00Z,29.4412,-92.0613,10.0,17.51,11111222 
WAVCIS,ioos:station:WAVCIS:CSI03:1,2009-11-01T11:00:00Z,29.4412,-92.0613,10.0,17.53,11111222 
WAVCIS,ioos:station:WAVCIS:CSI03:1,2009-11-01T12:00:00Z,29.4412,-92.0613,10.0,17.58,11111222 
WAVCIS,ioos:station:WAVCIS:CSI03:1,2009-11-01T13:00:00Z,29.4412,-92.0613,10.0,17.58,11111222 
WAVCIS,ioos:station:WAVCIS:CSI03:1,2009-11-01T14:00:00Z,29.4412,-92.0613,10.0,16.93,11111222 
WAVCIS,ioos:station:WAVCIS:CSI03:1,2009-11-01T15:00:00Z,29.4412,-92.0613,10.0,15.44,11111222 
WAVCIS,ioos:station:WAVCIS:CSI03:1,2009-11-01T16:00:00Z,29.4412,-92.0613,10.0,15.48,11111222 
WAVCIS,ioos:station:WAVCIS:CSI03:1,2009-11-01T17:00:00Z,29.4412,-92.0613,10.0,16.04,11111222 
WAVCIS,ioos:station:WAVCIS:CSI03:1,2009-11-01T18:00:00Z,29.4412,-92.0613,10.0,16.36,11111222 
WAVCIS,ioos:station:WAVCIS:CSI03:1,2009-11-01T19:00:00Z,29.4412,-92.0613,10.0,17.68,11111222 
WAVCIS,ioos:station:WAVCIS:CSI03:1,2009-11-01T20:00:00Z,29.4412,-92.0613,10.0,17.6,11111222 
WAVCIS,ioos:station:WAVCIS:CSI03:1,2009-11-01T21:00:00Z,29.4412,-92.0613,10.0,17.54,11111222 
WAVCIS,ioos:station:WAVCIS:CSI03:1,2009-11-01T22:00:00Z,29.4412,-92.0613,10.0,17.35,11111222 
WAVCIS,ioos:station:WAVCIS:CSI03:1,2009-11-01T23:00:00Z,29.4412,-92.0613,10.0,17.52,11111222 
WAVCIS,ioos:station:WAVCIS:CSI03:1,2009-11-02T00:00:00Z,29.4412,-92.0613,10.0,17.45,11111222 
WAVCIS,ioos:station:WAVCIS:CSI03:1,2009-11-02T01:00:00Z,29.4412,-92.0613,10.0,17.32,11111222 
WAVCIS,ioos:station:WAVCIS:CSI03:1,2009-11-02T02:00:00Z,29.4412,-92.0613,10.0,17.47,11111222 
WAVCIS,ioos:station:WAVCIS:CSI03:1,2009-11-02T03:00:00Z,29.4412,-92.0613,10.0,17.35,11111222 
WAVCIS,ioos:station:WAVCIS:CSI03:1,2009-11-02T04:00:00Z,29.4412,-92.0613,10.0,17.14,11111222 
WAVCIS,ioos:station:WAVCIS:CSI03:1,2009-11-02T05:00:00Z,29.4412,-92.0613,10.0,16.81,11111222 
WAVCIS,ioos:station:WAVCIS:CSI03:1,2009-11-02T06:00:00Z,29.4412,-92.0613,10.0,17.13,11111222 
WAVCIS,ioos:station:WAVCIS:CSI03:1,2009-11-02T07:00:00Z,29.4412,-92.0613,10.0,17.71,11111222 
WAVCIS,ioos:station:WAVCIS:CSI03:1,2009-11-02T08:00:00Z,29.4412,-92.0613,10.0,17.55,11111222 
WAVCIS,ioos:station:WAVCIS:CSI03:1,2009-11-02T09:00:00Z,29.4412,-92.0613,10.0,17.61,11111222 
WAVCIS,ioos:station:WAVCIS:CSI03:1,2009-11-02T10:00:00Z,29.4412,-92.0613,10.0,16.38,11111222 
WAVCIS,ioos:station:WAVCIS:CSI03:1,2009-11-02T11:00:00Z,29.4412,-92.0613,10.0,16.0,11111222 
WAVCIS,ioos:station:WAVCIS:CSI03:1,2009-11-02T12:00:00Z,29.4412,-92.0613,10.0,15.5,11111222 
WAVCIS,ioos:station:WAVCIS:CSI03:1,2009-11-02T13:00:00Z,29.4412,-92.0613,10.0,15.62,11111222 
WAVCIS,ioos:station:WAVCIS:CSI03:1,2009-11-02T14:00:00Z,29.4412,-92.0613,10.0,16.11,11111222 
WAVCIS,ioos:station:WAVCIS:CSI03:1,2009-11-02T15:00:00Z,29.4412,-92.0613,10.0,15.47,11111222 
WAVCIS,ioos:station:WAVCIS:CSI03:1,2009-11-02T16:00:00Z,29.4412,-92.0613,10.0,15.71,11111222 
WAVCIS,ioos:station:WAVCIS:CSI03:1,2009-11-02T17:00:00Z,29.4412,-92.0613,10.0,15.68,11111222 
WAVCIS,ioos:station:WAVCIS:CSI03:1,2009-11-02T18:00:00Z,29.4412,-92.0613,10.0,15.96,11111222 
WAVCIS,ioos:station:WAVCIS:CSI03:1,2009-11-02T19:00:00Z,29.4412,-92.0613,10.0,16.09,11111222 
WAVCIS,ioos:station:WAVCIS:CSI03:1,2009-11-02T20:00:00Z,29.4412,-92.0613,10.0,16.79,11111222 
WAVCIS,ioos:station:WAVCIS:CSI03:1,2009-11-02T21:00:00Z,29.4412,-92.0613,10.0,17.21,11111222 
WAVCIS,ioos:station:WAVCIS:CSI03:1,2009-11-02T22:00:00Z,29.4412,-92.0613,10.0,17.15,11111222 
WAVCIS,ioos:station:WAVCIS:CSI03:1,2009-11-02T23:00:00Z,29.4412,-92.0613,10.0,17.15,11111222 
WAVCIS,ioos:station:WAVCIS:CSI03:1,2009-11-03T00:00:00Z,29.4412,-92.0613,10.0,17.56,11111222 
WAVCIS,ioos:station:WAVCIS:CSI03:1,2009-11-03T01:00:00Z,29.4412,-92.0613,10.0,17.43,11111222 
WAVCIS,ioos:station:WAVCIS:CSI03:1,2009-11-03T02:00:00Z,29.4412,-92.0613,10.0,17.25,11111222 
WAVCIS,ioos:station:WAVCIS:CSI03:1,2009-11-03T03:00:00Z,29.4412,-92.0613,10.0,17.83,11111222 
WAVCIS,ioos:station:WAVCIS:CSI03:1,2009-11-03T04:00:00Z,29.4412,-92.0613,10.0,17.52,11111222 
WAVCIS,ioos:station:WAVCIS:CSI03:1,2009-11-03T05:00:00Z,29.4412,-92.0613,10.0,16.79,11111222 
WAVCIS,ioos:station:WAVCIS:CSI03:1,2009-11-03T06:00:00Z,29.4412,-92.0613,10.0,17.14,11111222 
WAVCIS,ioos:station:WAVCIS:CSI03:1,2009-11-03T07:00:00Z,29.4412,-92.0613,10.0,17.29,11111222 
WAVCIS,ioos:station:WAVCIS:CSI03:1,2009-11-03T08:00:00Z,29.4412,-92.0613,10.0,16.76,11111222 
WAVCIS,ioos:station:WAVCIS:CSI03:1,2009-11-03T09:00:00Z,29.4412,-92.0613,10.0,16.67,11111222 
WAVCIS,ioos:station:WAVCIS:CSI03:1,2009-11-03T10:00:00Z,29.4412,-92.0613,10.0,16.23,11111222 
WAVCIS,ioos:station:WAVCIS:CSI03:1,2009-11-03T11:00:00Z,29.4412,-92.0613,10.0,15.56,11111222 
WAVCIS,ioos:station:WAVCIS:CSI03:1,2009-11-03T12:00:00Z,29.4412,-92.0613,10.0,15.54,11111222 
WAVCIS,ioos:station:WAVCIS:CSI03:1,2009-11-03T13:00:00Z,29.4412,-92.0613,10.0,15.58,11111222 
WAVCIS,ioos:station:WAVCIS:CSI03:1,2009-11-03T14:00:00Z,29.4412,-92.0613,10.0,16.81,11111222 
WAVCIS,ioos:station:WAVCIS:CSI03:1,2009-11-03T15:00:00Z,29.4412,-92.0613,10.0,15.64,11111222 
WAVCIS,ioos:station:WAVCIS:CSI03:1,2009-11-03T16:00:00Z,29.4412,-92.0613,10.0,15.58,11111222 
WAVCIS,ioos:station:WAVCIS:CSI03:1,2009-11-03T17:00:00Z,29.4412,-92.0613,10.0,15.63,11111222 
WAVCIS,ioos:station:WAVCIS:CSI03:1,2009-11-03T18:00:00Z,29.4412,-92.0613,10.0,16.1,11111222 
WAVCIS,ioos:station:WAVCIS:CSI03:1,2009-11-03T19:00:00Z,29.4412,-92.0613,10.0,15.96,11111222 
WAVCIS,ioos:station:WAVCIS:CSI03:1,2009-11-03T20:00:00Z,29.4412,-92.0613,10.0,16.35,11111222 
WAVCIS,ioos:station:WAVCIS:CSI03:1,2009-11-03T21:00:00Z,29.4412,-92.0613,10.0,16.6,11111222 
WAVCIS,ioos:station:WAVCIS:CSI03:1,2009-11-03T22:00:00Z,29.4412,-92.0613,10.0,16.79,11111222 
WAVCIS,ioos:station:WAVCIS:CSI03:1,2009-11-03T23:00:00Z,29.4412,-92.0613,10.0,16.73,11111222 
WAVCIS,ioos:station:WAVCIS:CSI03:1,2009-11-04T00:00:00Z,29.4412,-92.0613,10.0,16.8,11111222 
WAVCIS,ioos:station:WAVCIS:CSI03:1,2009-11-04T01:00:00Z,29.4412,-92.0613,10.0,16.8,11111222 
WAVCIS,ioos:station:WAVCIS:CSI03:1,2009-11-04T02:00:00Z,29.4412,-92.0613,10.0,16.88,11111222 
WAVCIS,ioos:station:WAVCIS:CSI03:1,2009-11-04T03:00:00Z,29.4412,-92.0613,10.0,16.68,11111222 
WAVCIS,ioos:station:WAVCIS:CSI03:1,2009-11-04T04:00:00Z,29.4412,-92.0613,10.0,16.75,11111222 
WAVCIS,ioos:station:WAVCIS:CSI03:1,2009-11-04T05:00:00Z,29.4412,-92.0613,10.0,16.68,11111222 
WAVCIS,ioos:station:WAVCIS:CSI03:1,2009-11-04T06:00:00Z,29.4412,-92.0613,10.0,16.68,11111222 
WAVCIS,ioos:station:WAVCIS:CSI03:1,2009-11-04T07:00:00Z,29.4412,-92.0613,10.0,16.46,11111222 
WAVCIS,ioos:station:WAVCIS:CSI03:1,2009-11-04T08:00:00Z,29.4412,-92.0613,10.0,16.72,11111222 
WAVCIS,ioos:station:WAVCIS:CSI03:1,2009-11-04T09:00:00Z,29.4412,-92.0613,10.0,16.93,11111222 
WAVCIS,ioos:station:WAVCIS:CSI03:1,2009-11-04T10:00:00Z,29.4412,-92.0613,10.0,16.92,11111222 
WAVCIS,ioos:station:WAVCIS:CSI03:1,2009-11-04T11:00:00Z,29.4412,-92.0613,10.0,16.9,11111222 
WAVCIS,ioos:station:WAVCIS:CSI03:1,2009-11-04T12:00:00Z,29.4412,-92.0613,10.0,16.31,11111222 
WAVCIS,ioos:station:WAVCIS:CSI03:1,2009-11-04T13:00:00Z,29.4412,-92.0613,10.0,16.3,11111222 
WAVCIS,ioos:station:WAVCIS:CSI03:1,2009-11-04T14:00:00Z,29.4412,-92.0613,10.0,16.5,11111222 
WAVCIS,ioos:station:WAVCIS:CSI03:1,2009-11-04T15:00:00Z,29.4412,-92.0613,10.0,16.21,11111222 
WAVCIS,ioos:station:WAVCIS:CSI03:1,2009-11-04T16:00:00Z,29.4412,-92.0613,10.0,16.18,11111222 
WAVCIS,ioos:station:WAVCIS:CSI03:1,2009-11-04T17:00:00Z,29.4412,-92.0613,10.0,16.32,11111222 
WAVCIS,ioos:station:WAVCIS:CSI03:1,2009-11-04T18:00:00Z,29.4412,-92.0613,10.0,16.59,11111222 
WAVCIS,ioos:station:WAVCIS:CSI03:1,2009-11-04T19:00:00Z,29.4412,-92.0613,10.0,16.77,11111222 
WAVCIS,ioos:station:WAVCIS:CSI03:1,2009-11-04T20:00:00Z,29.4412,-92.0613,10.0,17.15,11111222 
WAVCIS,ioos:station:WAVCIS:CSI03:1,2009-11-04T21:00:00Z,29.4412,-92.0613,10.0,17.36,11111222 
WAVCIS,ioos:station:WAVCIS:CSI03:1,2009-11-04T22:00:00Z,29.4412,-92.0613,10.0,17.0,11111222 
WAVCIS,ioos:station:WAVCIS:CSI03:1,2009-11-04T23:00:00Z,29.4412,-92.0613,10.0,16.5,11111222 
WAVCIS,ioos:station:WAVCIS:CSI03:1,2009-11-05T00:00:00Z,29.4412,-92.0613,10.0,16.46,11111222 
WAVCIS,ioos:station:WAVCIS:CSI03:1,2009-11-05T01:00:00Z,29.4412,-92.0613,10.0,16.48,11111222 
WAVCIS,ioos:station:WAVCIS:CSI03:1,2009-11-05T02:00:00Z,29.4412,-92.0613,10.0,16.51,11111222 
WAVCIS,ioos:station:WAVCIS:CSI03:1,2009-11-05T03:00:00Z,29.4412,-92.0613,10.0,16.75,11111222 
WAVCIS,ioos:station:WAVCIS:CSI03:1,2009-11-05T04:00:00Z,29.4412,-92.0613,10.0,16.64,11111222 
WAVCIS,ioos:station:WAVCIS:CSI03:1,2009-11-05T05:00:00Z,29.4412,-92.0613,10.0,16.79,11111222 
WAVCIS,ioos:station:WAVCIS:CSI03:1,2009-11-05T06:00:00Z,29.4412,-92.0613,10.0,16.77,11111222 
WAVCIS,ioos:station:WAVCIS:CSI03:1,2009-11-05T07:00:00Z,29.4412,-92.0613,10.0,16.64,11111222 
WAVCIS,ioos:station:WAVCIS:CSI03:1,2009-11-05T08:00:00Z,29.4412,-92.0613,10.0,16.66,11111222 
WAVCIS,ioos:station:WAVCIS:CSI03:1,2009-11-05T09:00:00Z,29.4412,-92.0613,10.0,16.27,11111222 
WAVCIS,ioos:station:WAVCIS:CSI03:1,2009-11-05T10:00:00Z,29.4412,-92.0613,10.0,16.07,11111222 
WAVCIS,ioos:station:WAVCIS:CSI03:1,2009-11-05T11:00:00Z,29.4412,-92.0613,10.0,16.0,11111222 
WAVCIS,ioos:station:WAVCIS:CSI03:1,2009-11-05T12:00:00Z,29.4412,-92.0613,10.0,15.98,11111222 
WAVCIS,ioos:station:WAVCIS:CSI03:1,2009-11-05T13:00:00Z,29.4412,-92.0613,10.0,15.95,11111222 
WAVCIS,ioos:station:WAVCIS:CSI03:1,2009-11-05T14:00:00Z,29.4412,-92.0613,10.0,15.93,11111222 
WAVCIS,ioos:station:WAVCIS:CSI03:1,2009-11-05T15:00:00Z,29.4412,-92.0613,10.0,15.97,11111222 
WAVCIS,ioos:station:WAVCIS:CSI03:1,2009-11-05T16:00:00Z,29.4412,-92.0613,10.0,16.0,11111222 
WAVCIS,ioos:station:WAVCIS:CSI03:1,2009-11-05T17:00:00Z,29.4412,-92.0613,10.0,16.03,11111222 
WAVCIS,ioos:station:WAVCIS:CSI03:1,2009-11-05T18:00:00Z,29.4412,-92.0613,10.0,16.2,11111222 
WAVCIS,ioos:station:WAVCIS:CSI03:1,2009-11-05T19:00:00Z,29.4412,-92.0613,10.0,16.61,11111222 
WAVCIS,ioos:station:WAVCIS:CSI03:1,2009-11-05T20:00:00Z,29.4412,-92.0613,10.0,16.95,11111222 
WAVCIS,ioos:station:WAVCIS:CSI03:1,2009-11-05T21:00:00Z,29.4412,-92.0613,10.0,16.55,11111222 
WAVCIS,ioos:station:WAVCIS:CSI03:1,2009-11-05T22:00:00Z,29.4412,-92.0613,10.0,16.94,11111222 
WAVCIS,ioos:station:WAVCIS:CSI03:1,2009-11-05T23:00:00Z,29.4412,-92.0613,10.0,17.23,11111222 
WAVCIS,ioos:station:WAVCIS:CSI03:1,2009-11-06T00:00:00Z,29.4412,-92.0613,10.0,17.44,11111222 
WAVCIS,ioos:station:WAVCIS:CSI03:1,2009-11-06T01:00:00Z,29.4412,-92.0613,10.0,17.15,11111222 
WAVCIS,ioos:station:WAVCIS:CSI03:1,2009-11-06T02:00:00Z,29.4412,-92.0613,10.0,16.92,11111222 
WAVCIS,ioos:station:WAVCIS:CSI03:1,2009-11-06T03:00:00Z,29.4412,-92.0613,10.0,16.79,11111222 
WAVCIS,ioos:station:WAVCIS:CSI03:1,2009-11-06T04:00:00Z,29.4412,-92.0613,10.0,16.88,11111222 
WAVCIS,ioos:station:WAVCIS:CSI03:1,2009-11-06T05:00:00Z,29.4412,-92.0613,10.0,16.74,11111222 
WAVCIS,ioos:station:WAVCIS:CSI03:1,2009-11-06T06:00:00Z,29.4412,-92.0613,10.0,16.77,11111222 
WAVCIS,ioos:station:WAVCIS:CSI03:1,2009-11-06T07:00:00Z,29.4412,-92.0613,10.0,16.99,11111222 
WAVCIS,ioos:station:WAVCIS:CSI03:1,2009-11-06T08:00:00Z,29.4412,-92.0613,10.0,17.04,11111222 
WAVCIS,ioos:station:WAVCIS:CSI03:1,2009-11-06T09:00:00Z,29.4412,-92.0613,10.0,17.14,11111222 
WAVCIS,ioos:station:WAVCIS:CSI03:1,2009-11-06T10:00:00Z,29.4412,-92.0613,10.0,17.1,11111222 
WAVCIS,ioos:station:WAVCIS:CSI03:1,2009-11-06T11:00:00Z,29.4412,-92.0613,10.0,17.02,11111222 
WAVCIS,ioos:station:WAVCIS:CSI03:1,2009-11-06T12:00:00Z,29.4412,-92.0613,10.0,16.29,11111222 
WAVCIS,ioos:station:WAVCIS:CSI03:1,2009-11-06T13:00:00Z,29.4412,-92.0613,10.0,16.34,11111222 
WAVCIS,ioos:station:WAVCIS:CSI03:1,2009-11-06T14:00:00Z,29.4412,-92.0613,10.0,16.25,11111222 
WAVCIS,ioos:station:WAVCIS:CSI03:1,2009-11-06T15:00:00Z,29.4412,-92.0613,10.0,16.41,11111222 
WAVCIS,ioos:station:WAVCIS:CSI03:1,2009-11-06T16:00:00Z,29.4412,-92.0613,10.0,16.36,11111222 
WAVCIS,ioos:station:WAVCIS:CSI03:1,2009-11-06T17:00:00Z,29.4412,-92.0613,10.0,16.52,11111222 
WAVCIS,ioos:station:WAVCIS:CSI03:1,2009-11-06T18:00:00Z,29.4412,-92.0613,10.0,16.67,11111222 
WAVCIS,ioos:station:WAVCIS:CSI03:1,2009-11-06T19:00:00Z,29.4412,-92.0613,10.0,16.7,11111222 
WAVCIS,ioos:station:WAVCIS:CSI03:1,2009-11-06T20:00:00Z,29.4412,-92.0613,10.0,16.81,11111222 
WAVCIS,ioos:station:WAVCIS:CSI03:1,2009-11-06T21:00:00Z,29.4412,-92.0613,10.0,16.95,11111222 
WAVCIS,ioos:station:WAVCIS:CSI03:1,2009-11-06T22:00:00Z,29.4412,-92.0613,10.0,16.99,11111222 
WAVCIS,ioos:station:WAVCIS:CSI03:1,2009-11-06T23:00:00Z,29.4412,-92.0613,10.0,16.95,11111222 
WAVCIS,ioos:station:WAVCIS:CSI03:1,2009-11-07T00:00:00Z,29.4412,-92.0613,10.0,17.09,11111222 
WAVCIS,ioos:station:WAVCIS:CSI03:1,2009-11-07T01:00:00Z,29.4412,-92.0613,10.0,17.04,11111222 
WAVCIS,ioos:station:WAVCIS:CSI03:1,2009-11-07T02:00:00Z,29.4412,-92.0613,10.0,17.18,11111222 
WAVCIS,ioos:station:WAVCIS:CSI03:1,2009-11-07T03:00:00Z,29.4412,-92.0613,10.0,17.12,11111222 
WAVCIS,ioos:station:WAVCIS:CSI03:1,2009-11-07T04:00:00Z,29.4412,-92.0613,10.0,17.07,11111222 
WAVCIS,ioos:station:WAVCIS:CSI03:1,2009-11-07T05:00:00Z,29.4412,-92.0613,10.0,16.93,11111222 
WAVCIS,ioos:station:WAVCIS:CSI03:1,2009-11-07T06:00:00Z,29.4412,-92.0613,10.0,16.88,11111222 
WAVCIS,ioos:station:WAVCIS:CSI03:1,2009-11-07T07:00:00Z,29.4412,-92.0613,10.0,16.79,11111222 
WAVCIS,ioos:station:WAVCIS:CSI03:1,2009-11-07T08:00:00Z,29.4412,-92.0613,10.0,16.71,11111222 
WAVCIS,ioos:station:WAVCIS:CSI03:1,2009-11-07T09:00:00Z,29.4412,-92.0613,10.0,16.48,11111222 
WAVCIS,ioos:station:WAVCIS:CSI03:1,2009-11-07T10:00:00Z,29.4412,-92.0613,10.0,16.54,11111222 
WAVCIS,ioos:station:WAVCIS:CSI03:1,2009-11-07T11:00:00Z,29.4412,-92.0613,10.0,16.46,11111222 
WAVCIS,ioos:station:WAVCIS:CSI03:1,2009-11-07T12:00:00Z,29.4412,-92.0613,10.0,16.36,11111222 
WAVCIS,ioos:station:WAVCIS:CSI03:1,2009-11-07T13:00:00Z,29.4412,-92.0613,10.0,16.09,11111222 
WAVCIS,ioos:station:WAVCIS:CSI03:1,2009-11-07T14:00:00Z,29.4412,-92.0613,10.0,15.99,11111222 
WAVCIS,ioos:station:WAVCIS:CSI03:1,2009-11-07T15:00:00Z,29.4412,-92.0613,10.0,16.19,11111222 
WAVCIS,ioos:station:WAVCIS:CSI03:1,2009-11-07T16:00:00Z,29.4412,-92.0613,10.0,16.3,11111222 
WAVCIS,ioos:station:WAVCIS:CSI03:1,2009-11-07T17:00:00Z,29.4412,-92.0613,10.0,16.22,11111222 
WAVCIS,ioos:station:WAVCIS:CSI03:1,2009-11-07T18:00:00Z,29.4412,-92.0613,10.0,16.13,11111222 
WAVCIS,ioos:station:WAVCIS:CSI03:1,2009-11-07T19:00:00Z,29.4412,-92.0613,10.0,16.36,11111222 
WAVCIS,ioos:station:WAVCIS:CSI03:1,2009-11-07T20:00:00Z,29.4412,-92.0613,10.0,16.71,11111222 
WAVCIS,ioos:station:WAVCIS:CSI03:1,2009-11-07T21:00:00Z,29.4412,-92.0613,10.0,16.85,11111222 
WAVCIS,ioos:station:WAVCIS:CSI03:1,2009-11-07T22:00:00Z,29.4412,-92.0613,10.0,16.89,11111222 
WAVCIS,ioos:station:WAVCIS:CSI03:1,2009-11-07T23:00:00Z,29.4412,-92.0613,10.0,16.88,11111222 
WAVCIS,ioos:station:WAVCIS:CSI03:1,2009-11-08T00:00:00Z,29.4412,-92.0613,10.0,16.85,11111222 
WAVCIS,ioos:station:WAVCIS:CSI03:1,2009-11-08T01:00:00Z,29.4412,-92.0613,10.0,17.03,11111222 
WAVCIS,ioos:station:WAVCIS:CSI03:1,2009-11-08T02:00:00Z,29.4412,-92.0613,10.0,17.07,11111222 
WAVCIS,ioos:station:WAVCIS:CSI03:1,2009-11-08T03:00:00Z,29.4412,-92.0613,10.0,17.07,11111222 
WAVCIS,ioos:station:WAVCIS:CSI03:1,2009-11-08T04:00:00Z,29.4412,-92.0613,10.0,16.97,11111222 
WAVCIS,ioos:station:WAVCIS:CSI03:1,2009-11-08T05:00:00Z,29.4412,-92.0613,10.0,16.78,11111222 
WAVCIS,ioos:station:WAVCIS:CSI03:1,2009-11-08T06:00:00Z,29.4412,-92.0613,10.0,16.85,11111222 
WAVCIS,ioos:station:WAVCIS:CSI03:1,2009-11-08T07:00:00Z,29.4412,-92.0613,10.0,16.74,11111222 
WAVCIS,ioos:station:WAVCIS:CSI03:1,2009-11-08T08:00:00Z,29.4412,-92.0613,10.0,16.6,11111222 
WAVCIS,ioos:station:WAVCIS:CSI03:1,2009-11-08T09:00:00Z,29.4412,-92.0613,10.0,16.51,11111222 
WAVCIS,ioos:station:WAVCIS:CSI03:1,2009-11-08T10:00:00Z,29.4412,-92.0613,10.0,16.38,11111222 
WAVCIS,ioos:station:WAVCIS:CSI03:1,2009-11-08T11:00:00Z,29.4412,-92.0613,10.0,16.37,11111222 
WAVCIS,ioos:station:WAVCIS:CSI03:1,2009-11-08T12:00:00Z,29.4412,-92.0613,10.0,16.33,11111222 
WAVCIS,ioos:station:WAVCIS:CSI03:1,2009-11-08T13:00:00Z,29.4412,-92.0613,10.0,16.28,11111222 
WAVCIS,ioos:station:WAVCIS:CSI03:1,2009-11-08T14:00:00Z,29.4412,-92.0613,10.0,16.29,11111222 
WAVCIS,ioos:station:WAVCIS:CSI03:1,2009-11-08T15:00:00Z,29.4412,-92.0613,10.0,16.29,11111222 
WAVCIS,ioos:station:WAVCIS:CSI03:1,2009-11-08T16:00:00Z,29.4412,-92.0613,10.0,16.22,11111222 
WAVCIS,ioos:station:WAVCIS:CSI03:1,2009-11-08T17:00:00Z,29.4412,-92.0613,10.0,16.22,11111222 
WAVCIS,ioos:station:WAVCIS:CSI03:1,2009-11-08T18:00:00Z,29.4412,-92.0613,10.0,16.19,11111222 
WAVCIS,ioos:station:WAVCIS:CSI03:1,2009-11-08T19:00:00Z,29.4412,-92.0613,10.0,16.06,11111222 
WAVCIS,ioos:station:WAVCIS:CSI03:1,2009-11-08T20:00:00Z,29.4412,-92.0613,10.0,16.07,11111222 
WAVCIS,ioos:station:WAVCIS:CSI03:1,2009-11-08T21:00:00Z,29.4412,-92.0613,10.0,15.91,11111222 
WAVCIS,ioos:station:WAVCIS:CSI03:1,2009-11-08T22:00:00Z,29.4412,-92.0613,10.0,15.86,11111222 
WAVCIS,ioos:station:WAVCIS:CSI03:1,2009-11-08T23:00:00Z,29.4412,-92.0613,10.0,15.99,11111222 
WAVCIS,ioos:station:WAVCIS:CSI03:1,2009-11-09T00:00:00Z,29.4412,-92.0613,10.0,16.01,11111222 
WAVCIS,ioos:station:WAVCIS:CSI03:1,2009-11-09T01:00:00Z,29.4412,-92.0613,10.0,15.96,11111222 
WAVCIS,ioos:station:WAVCIS:CSI03:1,2009-11-09T02:00:00Z,29.4412,-92.0613,10.0,16.02,11111222 
WAVCIS,ioos:station:WAVCIS:CSI03:1,2009-11-09T03:00:00Z,29.4412,-92.0613,10.0,16.03,11111222 
WAVCIS,ioos:station:WAVCIS:CSI03:1,2009-11-09T04:00:00Z,29.4412,-92.0613,10.0,16.13,11111222 
WAVCIS,ioos:station:WAVCIS:CSI03:1,2009-11-09T05:00:00Z,29.4412,-92.0613,10.0,15.92,11111222 
WAVCIS,ioos:station:WAVCIS:CSI03:1,2009-11-09T06:00:00Z,29.4412,-92.0613,10.0,15.92,11111222 
WAVCIS,ioos:station:WAVCIS:CSI03:1,2009-11-09T07:00:00Z,29.4412,-92.0613,10.0,15.88,11111222 
WAVCIS,ioos:station:WAVCIS:CSI03:1,2009-11-09T08:00:00Z,29.4412,-92.0613,10.0,15.72,11111222 
WAVCIS,ioos:station:WAVCIS:CSI03:1,2009-11-09T09:00:00Z,29.4412,-92.0613,10.0,15.63,11111222 
WAVCIS,ioos:station:WAVCIS:CSI03:1,2009-11-09T10:00:00Z,29.4412,-92.0613,10.0,15.57,11111222 
WAVCIS,ioos:station:WAVCIS:CSI03:1,2009-11-09T11:00:00Z,29.4412,-92.0613,10.0,15.48,11111222 
WAVCIS,ioos:station:WAVCIS:CSI03:1,2009-11-09T12:00:00Z,29.4412,-92.0613,10.0,15.45,11111222 
WAVCIS,ioos:station:WAVCIS:CSI03:1,2009-11-09T13:00:00Z,29.4412,-92.0613,10.0,15.41,11111222 
WAVCIS,ioos:station:WAVCIS:CSI03:1,2009-11-09T14:00:00Z,29.4412,-92.0613,10.0,15.34,11111222 
WAVCIS,ioos:station:WAVCIS:CSI03:1,2009-11-09T15:00:00Z,29.4412,-92.0613,10.0,15.62,11111222 
WAVCIS,ioos:station:WAVCIS:CSI03:1,2009-11-09T16:00:00Z,29.4412,-92.0613,10.0,15.72,11111222 
WAVCIS,ioos:station:WAVCIS:CSI03:1,2009-11-09T17:00:00Z,29.4412,-92.0613,10.0,15.57,11111222 
WAVCIS,ioos:station:WAVCIS:CSI03:1,2009-11-09T18:00:00Z,29.4412,-92.0613,10.0,15.54,11111222 
WAVCIS,ioos:station:WAVCIS:CSI03:1,2009-11-09T19:00:00Z,29.4412,-92.0613,10.0,15.74,11111222 
WAVCIS,ioos:station:WAVCIS:CSI03:1,2009-11-09T20:00:00Z,29.4412,-92.0613,10.0,15.7,11111222 
WAVCIS,ioos:station:WAVCIS:CSI03:1,2009-11-09T21:00:00Z,29.4412,-92.0613,10.0,15.71,11111222 
WAVCIS,ioos:station:WAVCIS:CSI03:1,2009-11-09T22:00:00Z,29.4412,-92.0613,10.0,15.82,11111222 
WAVCIS,ioos:station:WAVCIS:CSI03:1,2009-11-09T23:00:00Z,29.4412,-92.0613,10.0,15.91,11111222 
WAVCIS,ioos:station:WAVCIS:CSI03:1,2009-11-10T00:00:00Z,29.4412,-92.0613,10.0,15.88,11111222 
WAVCIS,ioos:station:WAVCIS:CSI03:1,2009-11-10T01:00:00Z,29.4412,-92.0613,10.0,15.96,11111222 
WAVCIS,ioos:station:WAVCIS:CSI03:1,2009-11-10T02:00:00Z,29.4412,-92.0613,10.0,16.06,11111222 
WAVCIS,ioos:station:WAVCIS:CSI03:1,2009-11-10T03:00:00Z,29.4412,-92.0613,10.0,16.09,11111222 
WAVCIS,ioos:station:WAVCIS:CSI03:1,2009-11-10T04:00:00Z,29.4412,-92.0613,10.0,15.95,11111222 
WAVCIS,ioos:station:WAVCIS:CSI03:1,2009-11-10T05:00:00Z,29.4412,-92.0613,10.0,15.98,11111222 
WAVCIS,ioos:station:WAVCIS:CSI03:1,2009-11-10T06:00:00Z,29.4412,-92.0613,10.0,15.97,11111222 
WAVCIS,ioos:station:WAVCIS:CSI03:1,2009-11-10T07:00:00Z,29.4412,-92.0613,10.0,15.79,11111222 
WAVCIS,ioos:station:WAVCIS:CSI03:1,2009-11-10T08:00:00Z,29.4412,-92.0613,10.0,15.86,11111222 
WAVCIS,ioos:station:WAVCIS:CSI03:1,2009-11-10T09:00:00Z,29.4412,-92.0613,10.0,15.85,11111222 
WAVCIS,ioos:station:WAVCIS:CSI03:1,2009-11-10T10:00:00Z,29.4412,-92.0613,10.0,15.86,11111222 
WAVCIS,ioos:station:WAVCIS:CSI03:1,2009-11-10T11:00:00Z,29.4412,-92.0613,10.0,15.88,11111222 
WAVCIS,ioos:station:WAVCIS:CSI03:1,2009-11-10T12:00:00Z,29.4412,-92.0613,10.0,15.84,11111222 
WAVCIS,ioos:station:WAVCIS:CSI03:1,2009-11-10T13:00:00Z,29.4412,-92.0613,10.0,15.99,11111222 
WAVCIS,ioos:station:WAVCIS:CSI03:1,2009-11-10T14:00:00Z,29.4412,-92.0613,10.0,15.91,11111222 
WAVCIS,ioos:station:WAVCIS:CSI03:1,2009-11-10T15:00:00Z,29.4412,-92.0613,10.0,15.96,11111222 
WAVCIS,ioos:station:WAVCIS:CSI03:1,2009-11-10T16:00:00Z,29.4412,-92.0613,10.0,15.98,11111222 
WAVCIS,ioos:station:WAVCIS:CSI03:1,2009-11-10T17:00:00Z,29.4412,-92.0613,10.0,15.98,11111222 
WAVCIS,ioos:station:WAVCIS:CSI03:1,2009-11-10T18:00:00Z,29.4412,-92.0613,10.0,16.03,11111222 
WAVCIS,ioos:station:WAVCIS:CSI03:1,2009-11-10T19:00:00Z,29.4412,-92.0613,10.0,16.13,11111222 
WAVCIS,ioos:station:WAVCIS:CSI03:1,2009-11-10T20:00:00Z,29.4412,-92.0613,10.0,16.22,11111222 
WAVCIS,ioos:station:WAVCIS:CSI03:1,2009-11-10T21:00:00Z,29.4412,-92.0613,10.0,16.33,11111222 
WAVCIS,ioos:station:WAVCIS:CSI03:1,2009-11-10T22:00:00Z,29.4412,-92.0613,10.0,16.45,11111222 
WAVCIS,ioos:station:WAVCIS:CSI03:1,2009-11-10T23:00:00Z,29.4412,-92.0613,10.0,16.53,11111222 
WAVCIS,ioos:station:WAVCIS:CSI03:1,2009-11-11T00:00:00Z,29.4412,-92.0613,10.0,16.64,11111222 
WAVCIS,ioos:station:WAVCIS:CSI03:1,2009-11-11T01:00:00Z,29.4412,-92.0613,10.0,16.82,11111222 
WAVCIS,ioos:station:WAVCIS:CSI03:1,2009-11-11T02:00:00Z,29.4412,-92.0613,10.0,16.9,11111222 
WAVCIS,ioos:station:WAVCIS:CSI03:1,2009-11-11T03:00:00Z,29.4412,-92.0613,10.0,16.93,11111222 
WAVCIS,ioos:station:WAVCIS:CSI03:1,2009-11-11T04:00:00Z,29.4412,-92.0613,10.0,16.88,11111222 
WAVCIS,ioos:station:WAVCIS:CSI03:1,2009-11-11T05:00:00Z,29.4412,-92.0613,10.0,16.69,11111222 
WAVCIS,ioos:station:WAVCIS:CSI03:1,2009-11-11T06:00:00Z,29.4412,-92.0613,10.0,16.65,11111222 
WAVCIS,ioos:station:WAVCIS:CSI03:1,2009-11-11T07:00:00Z,29.4412,-92.0613,10.0,16.72,11111222 
WAVCIS,ioos:station:WAVCIS:CSI03:1,2009-11-11T08:00:00Z,29.4412,-92.0613,10.0,16.75,11111222 
WAVCIS,ioos:station:WAVCIS:CSI03:1,2009-11-11T09:00:00Z,29.4412,-92.0613,10.0,16.79,11111222 
WAVCIS,ioos:station:WAVCIS:CSI03:1,2009-11-11T10:00:00Z,29.4412,-92.0613,10.0,16.86,11111222 
WAVCIS,ioos:station:WAVCIS:CSI03:1,2009-11-11T11:00:00Z,29.4412,-92.0613,10.0,16.89,11111222 
WAVCIS,ioos:station:WAVCIS:CSI03:1,2009-11-11T12:00:00Z,29.4412,-92.0613,10.0,16.89,11111222 
WAVCIS,ioos:station:WAVCIS:CSI03:1,2009-11-11T13:00:00Z,29.4412,-92.0613,10.0,16.89,11111222 